Showing default

COSMOS 1909, 18788

Orbit data source: Space-Track

COSMOS 1909, 18788 is a payload satellite owned by UNKS (CIS) in LEO that was launched on Fri, 15 Jan 1988 UTC via a TSIKLON-3 launch vehicle from the Plesetsk Missile And Space Complex (PKMTR). Payload-class satellites include a variety of spacecraft equipped with specific instruments for various scientific and technological missions. These include communications satellites like Starlink; space stations such as the ISS; scientific satellites like the Hubble; Earth observation satellites from companies like Planet Labs, Umbra, and HawkEye 360; GPS; miniature CubeSats for education and research; and military/defense satellites.

Loading next visibility...
Identifier
18788, 1988-002A
Orbit
LEO
Country
Flag of CISCIS
Related business
Manufacturer
NPO PM
Mission
Defense Communications
Bus & Motor
STRELA-3, Unknown motor
Mass
225 kg wet, 225 kg dry
Launch date (UTC)
1988-01-15 (38 years ago)
Launch vehicle
TSIKLON-3
Launch site
Plesetsk Missile And Space Complex (PKMTR)
Object type
Payload
Rocket body
Debris
Shape & HBR
Cyl, 0.8 m
Radar Cross Section
1.257 m², Large (>1 m²)

Expand to show TLE details & history
Last TLE update: 14 hours ago

TLE from 14 hours ago
0 COSMOS 1909
1 18788U 88002A   25260.00691991  .00000045  00000-0  19021-3 0  9995
2 18788  82.6059  91.1822 0001154 193.8680 325.1413 12.62860521736326
Epoch: 2025-09-17T00:09Z
TLE epoch observation values (Epoch: 2025-09-17T00:09:57.88Z)
Latitude
20.82213°
Longitude
-90.31293°
Altitude
1,412.839 km
Speed
7.156 km/s
True Right ascension
17h 53m 28s
True Declination
20° 43' 04"
Sunlit
Object was in daylight at epoch
Visualization orbit readout
Latitude
Unknown
Longitude
Unknown
Altitude
Unknown
Speed
Unknown
Apparent Right ascension
Unknown
Apparent Declination
Unknown
Sunlit
N/A
Visualization observer readout
Local Sidereal Time
07:21:35
Azimuth
Unknown
Elevation
Unknown
Doppler factor
Unknown
Orbital elements
Apogee altitude
1,409.377 km
Perigee altitude
1,407.58 km
Semi-major axis
7,786.616 km
Eccentricity
0.00012
Inclination
82.6059°
RAAN
91.1822°
Arg. of periapsis
193.868°
True anomaly
325.13374°
Mean anomaly
325.1413°
Eccentric anomaly
325.13752°
Mean motion
3.15878 °/min
Orbital period
113.97 mins
BSTAR
0.00019021
Loading maneuver chart data...
Computing Atmospheric mass density...
Loading historical data...
Loading historical data...
Loading historical data...
Loading historical data...
Loading historical data...
Loading historical data...
Loading historical data...

Documentation

Showing up to 5 results
|